Back to catalog

STARLINK-4180

AliveCommunicationsVLEO
NORAD 53278·PAYLOAD·🇺🇸 United States

Launched Jul 24, 2022 from Cape Canaveral Space Force Station

Loading…

Next Passes (next 24 hours)

TLE

FreshSource: CelesTrak SupGP

Epoch: Sep 14, 2026, 20:44 UTC

1 53278C 22086AN  26257.86437500  .00047842  00000+0  15388-2 0  2576
2 53278  53.1589  42.1098 0001235  75.5337  11.3830 15.31672508    18

Track STARLINK-4180 in real time with AllMySat

Download on the App Store